[[{"header":{"parameterUnit":"m.s-1","parameterCategory":1,"la1":30.2992,"la2":30.254,"lo1":-89.0895,"lo2":-89.0443,"dy":0.0025,"dx":0.0025,"nx":19,"ny":19,"refTime":"2026-03-12T03:00:00:Z","depth":0,"parameterNumber":2,"parameterNumberName":"U-component_of_WINDS"},"data":[0,0,0,-2.8652,-2.8654,-2.8726,-2.8726,-2.8831,-2.8832,0,0,0,0,0,0,0,0,0,0,0,-2.8636,-2.8637,-2.8652,-2.8654,-2.8726,-2.8726,-2.8831,-2.8832,0,0,0,0,0,0,0,0,0,0,0,-2.8636,-2.8637,-2.8638,-2.8654,-2.8726,-2.8726,-2.8831,-2.8772,0,0,0,0,0,0,0,0,0,0,-2.87,-2.869,-2.8636,-2.8638,-2.8655,-2.8726,-2.8727,-2.8769,-2.8776,-2.8803,0,-2.8827,0,-2.8832,-2.884,-2.884,0,0,0,-2.865,-2.8685,-2.8699,-2.8638,-2.8655,-2.8726,-2.8692,-2.8773,-2.878,-2.8812,-2.8829,-2.8832,-2.8833,-2.8841,-2.8841,-2.9008,-2.9009,0,0,-2.8646,-2.8652,-2.8694,-2.8704,-2.8692,-2.869,-2.8695,-2.8777,-2.8796,-2.8829,-2.8835,-2.8835,-2.8841,-2.8842,-2.9007,-2.9008,0,0,0,-2.8637,-2.865,-2.8662,-2.87,-2.8712,-2.8692,-2.8698,-2.8793,-2.8796,-2.8836,-2.8836,-2.8842,-2.8844,-2.9006,-2.9008,-2.906,0,0,0,-2.8634,-2.8644,-2.866,-2.8665,-2.8711,-2.8753,-2.8711,-2.879,-2.8799,-2.8836,-2.8842,-2.8845,-2.9005,-2.9007,-2.9056,-2.9083,0,0,0,-2.863,-2.8644,-2.8656,-2.8665,-2.8696,-2.8751,-2.876,-2.8792,-2.88,-2.884,-2.8845,-2.9004,-2.9007,-2.9053,-2.9078,-2.9128,0,0,0,-2.8626,-2.8702,-2.8657,-2.8742,-2.8696,-2.8783,-2.8759,-2.8824,-2.8865,-2.8843,-2.9005,-2.9008,-2.9052,-2.9074,-2.9125,-2.9171,-2.9191,0,0,-2.8725,-2.8714,-2.8764,-2.8726,-2.8822,-2.8772,-2.8877,-2.8909,-2.8908,-2.8975,-2.8979,-2.9057,-2.9077,-2.9128,-2.9304,-2.932,0,0,0,-2.8797,-2.8833,-2.8857,-2.8896,-2.8922,-2.8947,-2.8963,-2.8975,-2.9032,-2.8943,-2.909,-2.9102,-2.9131,-2.9153,-2.9166,-2.9191,-2.9018,-2.9018,-2.9018,-2.8945,-2.8939,-2.9022,-2.9025,-2.9064,-2.908,-2.9111,-2.9131,-2.9114,-2.9149,-2.9168,-2.9276,-2.9302,-2.9312,-2.9337,-2.9194,-2.9194,-2.9194,-2.9194,-2.9088,-2.9138,-2.9115,-2.9186,-2.9181,-2.9242,-2.9262,-2.9248,-2.9305,-2.9261,-2.9286,-2.9237,-2.9329,-2.9352,-2.9198,-2.9197,-2.9197,-2.9196,-2.9196,-2.9183,-2.9205,-2.9219,-2.9276,-2.9321,-2.9324,-2.9379,-2.9373,-2.9368,-2.9393,-2.9413,-2.9412,-2.941,-2.9404,-2.9404,-2.9404,-2.9405,-2.9405,-2.9405,-2.9274,-2.9288,-2.9335,-2.9371,-2.9396,-2.9428,-2.9448,-2.9473,-2.9499,-2.949,-2.949,-2.9471,-2.934,-2.9306,-2.9411,-2.941,-2.9409,-2.9409,-2.9408,-2.9418,-2.9385,-2.9457,-2.9482,-2.9525,-2.9571,-2.9563,-2.9616,-2.9636,-2.9664,-2.964,-2.9544,-2.9532,-2.9522,-2.9493,-2.9641,-2.9641,-2.9641,-2.9641,-2.9497,-2.9491,-2.9563,-2.9604,-2.9644,-2.9645,-2.9729,-2.9746,-2.9759,-2.9771,-2.975,-2.9713,-2.9702,-2.9697,-2.9682,-2.9656,-2.9841,-2.9841,-2.9841,-2.9585,-2.9583,-2.9653,-2.9664,-2.9698,-2.9728,-2.9806,-2.9856,-2.9864,-2.9849,-2.9781,-2.9773,-2.9713,-2.9694,-2.9675,-2.9652,-2.9604,0,0]},{"header":{"parameterUnit":"m.s-1","parameterCategory":1,"la1":30.2992,"la2":30.254,"lo1":-89.0895,"lo2":-89.0443,"dy":0.0025,"dx":0.0025,"nx":19,"ny":19,"refTime":"2026-03-12T03:00:00:Z","depth":0,"parameterNumber":3,"parameterNumberName":"V-component_of_WINDS"},"data":[0,0,0,1.6404,1.6404,1.6394,1.6394,1.6367,1.6367,0,0,0,0,0,0,0,0,0,0,0,1.6399,1.6398,1.6404,1.6404,1.6394,1.6394,1.6367,1.6367,0,0,0,0,0,0,0,0,0,0,0,1.6399,1.6398,1.6398,1.6404,1.6394,1.6394,1.6367,1.638,0,0,0,0,0,0,0,0,0,0,1.6391,1.6378,1.6399,1.6398,1.6404,1.6394,1.6394,1.638,1.6379,1.6365,0,1.6352,0,1.6359,1.6364,1.6364,0,0,0,1.6409,1.638,1.6385,1.6398,1.6403,1.6394,1.64,1.638,1.6378,1.6363,1.6352,1.6351,1.6359,1.6364,1.6364,1.627,1.6269,0,0,1.641,1.6392,1.6386,1.6383,1.6385,1.64,1.64,1.6379,1.6365,1.6352,1.6351,1.6358,1.6364,1.6363,1.6271,1.627,0,0,0,1.6408,1.6392,1.6398,1.6384,1.6384,1.64,1.6399,1.6366,1.6369,1.6351,1.6358,1.6363,1.6363,1.6272,1.627,1.6219,0,0,0,1.6408,1.6391,1.6398,1.6387,1.6384,1.6375,1.6387,1.6371,1.6369,1.6358,1.6363,1.6363,1.6272,1.6271,1.6222,1.6196,0,0,0,1.6402,1.6391,1.6387,1.6386,1.6382,1.6376,1.6378,1.6371,1.6373,1.6364,1.6362,1.6273,1.6271,1.6225,1.6201,1.6166,0,0,0,1.639,1.634,1.6385,1.6332,1.6382,1.6344,1.6378,1.6351,1.6337,1.6363,1.6272,1.6271,1.6225,1.6204,1.6169,1.6133,1.6117,0,0,1.6317,1.633,1.63,1.6341,1.6291,1.6347,1.6289,1.6292,1.6307,1.6281,1.6279,1.6221,1.6201,1.6167,1.6033,1.602,0,0,0,1.6271,1.6249,1.624,1.6227,1.6229,1.6229,1.6243,1.6245,1.6224,1.6291,1.62,1.6189,1.6169,1.6153,1.6142,1.6125,1.6263,1.6263,1.6263,1.614,1.6163,1.6115,1.6137,1.6124,1.614,1.6131,1.6135,1.6161,1.614,1.6131,1.6048,1.6028,1.602,1.6003,1.6116,1.6115,1.6115,1.6115,1.6034,1.6006,1.6044,1.601,1.6035,1.6007,1.602,1.604,1.6016,1.6056,1.604,1.6079,1.6005,1.5991,1.6111,1.6112,1.6112,1.6113,1.6113,1.595,1.594,1.5944,1.5928,1.5913,1.5937,1.5913,1.5936,1.5957,1.5942,1.5935,1.5936,1.5939,1.5937,1.5937,1.5937,1.5937,1.5936,1.5936,1.586,1.5866,1.5844,1.5844,1.5839,1.5835,1.5851,1.5846,1.5847,1.5865,1.5865,1.5893,1.5994,1.6018,1.5932,1.5933,1.5933,1.5934,1.5934,1.5741,1.5772,1.5738,1.5733,1.5734,1.5717,1.5748,1.5736,1.5736,1.5723,1.5755,1.5827,1.5841,1.585,1.587,1.5751,1.5751,1.5751,1.5751,1.5669,1.568,1.565,1.5641,1.5634,1.5659,1.5618,1.563,1.5648,1.5649,1.567,1.5699,1.5707,1.5717,1.5729,1.5748,1.56,1.56,1.56,1.5597,1.5608,1.5569,1.5589,1.5592,1.5594,1.5556,1.5543,1.5569,1.5594,1.565,1.5656,1.5704,1.5718,1.5743,1.5761,1.5796,0,0]}]]